7 * 24
多渠道服务支持
STARLINK-37287(NORAD编号68684)是美国SpaceX公司星链(Starlink)低轨互联网星座计划中的一颗卫星,属于星链大规模组网部署中的一员。 星链星座整体规划部署4.2万颗低轨卫星,轨道集中在300-550公里近地轨道,采用Ku、Ka频段通信,旨在为全球尤其是偏远地区提供高速低时延卫星互联网服务。该卫星跟随星链迭代进程,依托星座架构,为实现全球广覆盖、大容量的天基通信网络补充组网能力,支持星链面向家庭、移动、商用等多场景的联网服务。
美国
(US)
| 数据来源 | 国际轨道数据 |
| 星历时间: | 2026-04-29T14:22:04+0800 9小时前 查看轨道信息 |
| 半长轴: | 6722.142km |
| 偏心率: | 0.0001412 |
| 轨道倾角: | 97.285° |
| 近地点辐角 | 91.615° |
| 升交点赤经 | 350.678° |
| 平近点角 | 268.527° |
| 近地点: | 343.055km |
| 远地点: | 344.955km |
| 周期: | 91.416分钟 |
| 每日圈数: | 15.752202 |